SCP
2 2 3 3 3 3 3 3 3 2 2 3 3 2 2 2 1 1 1 1 0 0 0 0 0 0 0 0 0 1 1 1 1 1 0 1 1 1
2 2 3 3 3 3 3 3 3 2 2 2 2 2 2 2 1 1 1 1 0 0 0 0 0 0 0 0 0 0 0 0 0 0 0 0 1 1
2 3 2 2 3 3 3 3 2 2 2 2 2 2 2 2 2 1 1 1 1 0 0 0 0 0 0 0 0 0 0 0 0 0 0 0 0 1
2 2 2 2 2 2 2 2 2 2 2 2 2 2 2 2 2 2 2 1 1 0 0 0 0 0 0 0 0 0 0 0 0 0 0 0 0 0
2 2 2 2 2 2 2 2 2 2 2 2 2 2 2 2 2 2 2 1 1 1 0 0 0 0 0 0 0 0 0 0 0 0 0 0 0 0
2 2 1 2 2 2 2 2 2 2 2 2 2 2 2 2 2 2 2 2 1 1 1 1 0 0 0 0 0 0 0 0 0 0 0 0 0 0
2 2 1 1 1 1 1 2 2 2 2 2 2 2 2 1 1 2 2 2 2 1 1 1 1 1 1 0 0 0 0 0 0 0 0 0 0 0
2 2 1 1 1 1 1 1 1 1 2 2 2 2 2 1 1 1 1 1 1 1 1 1 1 1 1 0 0 0 0 0 0 0 0 0 0 0
2 2 1 1 1 1 1 1 1 1 1 2 3 3 2 2 1 1 1 1 1 1 1 1 1 1 1 0 0 0 0 0 0 0 0 0 0 0
1 1 1 1 1 2 1 1 1 1 1 2 2 2 2 1 1 1 1 1 1 1 1 1 1 1 1 1 0 0 0 0 0 0 0 0 0 0
1 1 1 1 1 1 1 1 1 0 0 1 1 1 1 1 0 1 1 1 1 1 1 1 1 1 1 1 1 0 0 0 0 0 0 0 0 0
1 1 0 0 0 0 0 0 0 0 0 0 0 0 0 0 0 1 1 1 1 1 1 1 1 1 1 1 1 0 0 0 0 0 0 0 0 0
1 1 0 0 0 0 0 0 0 0 0 1 1 1 1 1 0 1 1 1 1 0 1 1 1 1 1 1 1 1 1 1 1 1 0 0 0 0
1 1 1 0 0 0 0 0 0 0 1 1 1 1 1 1 1 1 1 1 1 1 1 1 1 1 1 1 1 1 1 1 1 1 1 1 1 1
1 1 0 0 0 0 0 0 0 0 1 1 1 1 1 1 1 1 1 1 1 1 1 1 2 2 2 2 1 1 1 1 1 1 2 2 2 1
1 0 0 0 0 0 0 0 0 0 0 1 1 0 0 1 1 1 1 1 1 1 1 1 2 2 2 2 1 1 1 1 1 1 2 2 2 2
0 0 0 0 0 0 0 0 0 0 0 0 0 0 0 1 1 1 1 1 1 1 1 1 2 2 2 2 1 1 1 1 1 1 1 1 2 1
0 1 0 0 0 0 0 0 0 0 0 0 0 0 0 0 0 0 0 0 0 0 0 1 1 1 1 1 1 1 1 1 1 1 1 1 1 1
0 0 1 0 0 0 0 1 1 1 1 1 0 0 0 0 0 0 0 0 0 0 1 1 1 1 1 1 1 1 1 1 1 1 0 0 0 0
0 0 0 0 0 0 1 1 1 1 1 1 1 1 0 0 0 0 0 0 0 0 1 1 0 0 0 0 1 1 0 0 0 0 0 0 0 0
0 0 0 0 1 1 1 1 1 1 1 1 1 1 1 0 0 0 0 0 0 1 1 1 1 0 0 0 0 1 0 0 0 0 0 0 0 0
1 1 1 1 1 1 1 1 1 1 1 1 1 1 1 1 1 0 0 0 0 0 0 1 1 1 1 1 0 0 0 0 0 0 0 0 0 0
1 1 1 1 1 1 1 1 1 1 1 1 1 1 1 1 1 1 0 0 0 0 0 0 0 1 1 1 0 0 0 0 0 0 0 0 0 0
Wind_Speed
2 3 3 2 2 2 2 3 3 2 2 2 1 1 0 1 1 1 1 4 3 3 2 3 4 5 4 4 4 4 4 4 4 3 3 4 4 4
1 1 2 2 1 2 2 3 3 3 1 1 0 1 1 0 2 1 0 6 4 3 3 3 3 4 4 4 4 4 3 3 3 4 4 3 3 3
1 1 1 2 1 1 1 2 1 1 1 0 1 1 0 1 0 1 2 2 3 5 4 3 3 3 4 4 3 3 3 3 3 3 3 3 2 2
0 1 1 0 0 1 1 1 0 1 2 1 0 1 1 1 1 2 1 1 1 6 6 4 4 4 4 4 4 4 3 3 2 2 2 3 3 3
1 1 0 0 0 0 1 1 0 1 1 1 1 0 0 0 1 1 1 1 2 5 7 6 5 4 4 4 4 4 3 3 2 2 3 3 4 4
1 1 1 1 1 0 1 1 1 1 1 2 1 2 1 1 1 1 1 1 1 1 2 3 6 6 6 5 5 4 4 4 3 4 4 4 4 4
2 2 3 3 4 3 2 1 0 1 1 1 1 1 1 1 1 1 1 1 1 1 1 2 3 3 5 7 6 5 5 4 4 4 4 5 5 5
2 2 3 4 4 3 4 4 4 1 1 1 0 0 0 1 1 2 1 2 1 1 2 2 2 2 2 2 5 6 6 5 5 5 5 5 5 5
2 1 2 3 2 2 2 2 1 2 2 2 1 1 1 1 2 2 1 3 2 1 2 2 1 1 2 3 7 6 5 5 5 5 5 5 6 6
2 2 1 2 3 1 1 2 1 2 1 1 1 2 2 2 3 3 3 4 4 2 2 3 2 2 1 2 7 6 6 6 5 5 6 6 6 6
2 2 1 2 3 1 1 2 1 2 3 3 3 2 2 2 3 3 3 3 2 1 1 3 2 2 2 2 5 9 8 7 7 6 6 6 6 6
3 3 4 2 2 0 1 1 1 0 1 1 1 2 3 3 3 3 3 4 3 2 0 2 3 3 2 2 2 4 5 8 9 8 7 6 6 5
1 2 3 4 2 0 2 1 1 2 2 2 2 1 1 1 2 1 2 3 4 3 1 2 3 3 3 3 2 2 2 2 4 5 7 8 7 6
0 1 4 5 2 1 1 0 2 4 3 2 1 1 1 1 0 1 2 3 3 3 3 4 4 4 4 4 3 2 2 2 3 3 2 6 8 8
1 4 3 3 3 3 3 3 4 3 2 2 1 1 1 1 1 1 2 2 3 3 3 4 5 4 4 4 4 3 3 3 3 3 2 2 3 3
2 4 5 5 4 2 3 4 3 2 2 3 2 2 1 1 2 2 2 2 3 2 3 4 5 5 5 4 4 4 4 3 3 3 3 3 3 3
1 2 3 3 3 3 2 2 2 2 2 2 3 2 2 2 2 2 3 3 4 3 3 3 4 4 5 5 5 4 4 4 3 3 4 4 3 3
3 3 3 3 3 2 2 2 2 2 2 3 3 3 3 3 3 3 3 4 4 4 3 3 3 4 4 4 4 5 4 4 3 3 5 5 4 3
5 3 3 3 3 2 2 2 2 2 2 3 3 3 3 3 3 3 3 4 4 4 4 3 4 5 6 5 3 4 5 4 4 4 4 4 5 3
4 3 3 3 3 3 3 3 3 3 3 3 3 3 4 4 4 4 4 4 5 5 4 3 4 4 5 6 5 3 4 5 4 4 4 4 4 3
4 3 3 3 3 3 3 3 3 3 3 3 3 3 4 4 4 5 4 4 5 5 5 4 3 4 5 5 5 4 2 3 4 4 5 5 5 4
3 3 2 2 2 3 3 3 3 3 3 3 3 3 4 4 4 6 5 5 4 4 5 4 3 4 5 5 6 5 4 2 3 6 6 6 6 6
3 3 2 2 3 3 3 4 4 4 3 3 3 3 4 4 4 4 5 5 5 5 5 4 4 4 5 5 5 5 5 4 4 3 3 6 9 9
Wind_Direction
221 229 254 254 257 248 250 259 263 251 216 174 165 133 206 137 108 220 215 127 166 188 204 209 203 200 205 209 210 212 209 206 209 219 227 231 230 226
233 245 261 261 254 243 240 245 255 267 273 92 106 81 25 331 123 204 189 137 154 161 158 177 189 198 201 193 193 202 200 196 202 214 221 226 219 214
242 212 247 299 287 261 249 243 240 235 236 201 93 106 142 296 106 255 221 202 149 154 158 169 176 185 191 183 176 178 182 192 207 229 228 204 187 188
98 49 7 301 271 285 266 257 256 254 246 203 189 147 177 216 208 260 263 224 165 143 157 170 183 190 190 185 175 170 179 189 195 215 218 206 200 202
95 90 54 10 11 36 305 278 240 208 242 203 188 168 201 150 202 220 221 255 230 149 163 175 179 182 188 185 177 176 186 194 204 211 222 220 217 216
91 82 62 39 18 321 250 272 254 217 201 210 176 177 189 170 212 216 200 194 236 168 149 167 168 177 182 181 185 190 198 203 214 220 225 228 221 221
108 95 79 64 45 16 355 9 258 244 215 205 181 176 158 199 239 252 263 250 180 222 229 195 180 193 183 184 189 191 196 204 217 226 232 234 232 230
105 107 117 104 92 86 45 36 21 343 346 321 52 45 312 278 287 270 272 265 237 156 266 249 218 213 205 184 153 170 189 202 215 225 229 230 229 231
105 102 89 92 117 102 125 146 103 40 359 330 337 322 296 305 286 266 272 288 298 291 260 252 228 228 218 134 143 168 186 200 211 220 226 228 229 231
128 118 102 95 79 39 95 96 84 74 59 272 332 314 325 323 277 262 256 249 237 225 253 269 258 247 236 175 158 180 191 199 209 218 225 228 231 235
135 124 129 129 85 3 177 122 102 98 101 83 40 18 20 336 302 275 267 267 269 236 230 273 271 265 244 221 172 181 193 200 207 215 224 232 234 236
145 136 98 73 103 271 230 172 146 45 36 139 176 212 216 197 217 257 277 279 287 285 87 277 280 278 265 238 223 190 199 201 207 212 217 224 229 240
153 140 107 108 106 165 264 257 296 287 256 244 220 213 212 213 214 236 286 296 300 302 325 279 285 286 283 278 267 244 239 232 216 210 210 212 216 236
262 86 99 121 134 184 231 344 279 272 264 255 249 250 274 267 259 283 295 298 304 307 311 300 288 289 287 282 281 272 255 256 260 259 238 193 207 218
92 79 101 151 189 197 198 231 244 252 272 280 287 294 316 327 283 244 234 248 255 261 259 263 272 276 276 275 277 278 281 273 262 262 266 262 252 230
192 153 176 200 220 216 202 215 236 268 285 285 295 295 287 253 250 265 267 258 258 242 225 240 250 262 266 270 270 269 268 266 265 265 271 270 267 262
237 213 208 205 211 206 205 215 235 235 248 267 275 275 273 267 264 263 265 267 268 269 254 232 232 240 255 274 272 270 270 267 263 264 259 261 258 260
233 230 228 229 234 232 231 226 232 248 258 261 267 275 281 283 278 269 262 263 268 271 272 269 259 245 240 228 251 272 274 278 273 261 263 268 267 266
222 231 241 247 249 247 247 252 250 252 263 262 266 271 275 276 276 271 268 270 272 272 270 268 267 271 273 271 231 230 275 285 279 270 270 275 278 283
227 232 239 248 254 257 258 262 262 256 251 260 265 272 273 270 272 274 271 274 276 278 277 271 273 282 290 298 299 281 240 273 289 288 286 282 277 263
226 231 239 244 252 257 264 266 263 262 263 261 261 268 271 270 272 275 275 267 272 280 280 280 294 275 279 278 276 274 269 215 247 275 289 287 283 272
232 236 242 249 255 260 259 262 264 262 260 257 256 258 264 270 272 275 278 277 272 275 282 287 282 269 269 273 282 291 295 287 225 226 246 264 288 290
234 238 236 244 253 260 265 266 267 266 270 275 275 273 273 272 275 274 274 277 281 282 281 282 279 277 284 287 289 293 295 297 290 269 245 213 221 237